This demonstration page uses our WeatherBlox Daily Observations layout. Learn more.

39.29038, -76.61219

Hourly Observations for April 15, 2018

Temp ( °F °C ) Dew Point ( °F °C ) Humidity (%) Winds ( mph kmh ) Pressure ( in mb ) Visibility ( mi km ) Precip ( " mm )
12:54 am 00:54 undefined 67 19.4 54 12.2 63 63 undefined N/A 29.93 1014 N/A 0 0
1:54 am 01:54 undefined 67 19.4 55 12.8 66 66 undefined N/A 29.96 1015 N/A 0 0
2:54 am 02:54 undefined 60 15.6 52 11.1 75 75 undefined N/A 29.98 1015 N/A 0 0
3:54 am 03:54 undefined 55 12.8 49 9.4 80 80 undefined N/A 30.01 1016 N/A 0 0
4:54 am 04:54 undefined 54 12.2 48 8.9 80 80 undefined N/A 30.03 1017 N/A 0 0
5:54 am 05:54 undefined 53 11.7 48 8.9 83 83 undefined N/A 30.05 1018 N/A 0 0
6:54 am 06:54 undefined 52 11.1 47 8.3 83 83 undefined N/A 30.07 1018 N/A 0 0
7:54 am 07:54 undefined 51 10.6 47 8.3 86 86 undefined N/A 30.09 1019 N/A 0 0
8:54 am 08:54 undefined 49 9.4 46 7.8 90 90 undefined N/A 30.11 1020 N/A 0 0
9:54 am 09:54 undefined 48 8.9 45 7.2 89 89 undefined N/A 30.14 1021 N/A 0 0
10:54 am 10:54 undefined 48 8.9 45 7.2 89 89 undefined N/A 30.13 1020 N/A 0 0
11:54 am 11:54 undefined 48 8.9 45 7.2 89 89 undefined N/A 30.13 1020 N/A 0 0
12:54 pm 12:54 undefined 48 8.9 46 7.8 93 93 undefined N/A 30.12 1020 N/A 0.05 1.27
1:54 pm 13:54 undefined 48 8.9 46 7.8 93 93 undefined N/A 30.09 1019 N/A 0 0
2:54 pm 14:54 undefined 48 8.9 46 7.8 93 93 undefined N/A 30.07 1018 N/A 0.01 0.254
3:54 pm 15:54 undefined 49 9.4 46 7.8 90 90 undefined N/A 30.05 1018 N/A 0.02 0.508
4:54 pm 16:54 undefined 48 8.9 45 7.2 89 89 undefined N/A 30.04 1017 N/A 0.01 0.254
5:54 pm 17:54 undefined 47 8.3 43 6.1 86 86 undefined N/A 30.04 1017 N/A 0 0
6:54 pm 18:54 undefined 46 7.8 43 6.1 89 89 undefined N/A 29.99 1016 N/A 0.02 0.508
7:54 pm 19:54 undefined 45 7.2 42 5.6 90 90 undefined N/A 29.98 1015 N/A 0.03 0.762
8:54 pm 20:54 undefined 45 7.2 42 5.6 90 90 undefined N/A 29.97 1015 N/A 0.1 2.54
9:54 pm 21:54 undefined 45 7.2 43 6.1 93 93 undefined N/A 29.94 1014 N/A 0.02 0.508
10:54 pm 22:54 undefined 45 7.2 43 6.1 93 93 undefined N/A 29.89 1012 N/A 0.05 1.27
11:54 pm 23:54 undefined 46 7.8 44 6.7 93 93 undefined N/A 29.82 1010 N/A 0.03 0.762

Powered by AerisWeather